Flag for Greece Weather past 2 weeks in Patras, Greece

Now
82 °F

Overcast.


Feels Like: 86 °F
Forecast: 67 / 89 °F
Wind: 8 mph from Northwest

Location: Araxos Airport

Current Time: Sep 21, 2014 at 1:45:50 PM

Latest Report: Sep 21, 2014 at 12:50 PM


Visibility: N/A

Pressure: 30.01 "Hg

Humidity: 66%

Dew point: 70 °F

Location of PatrasLocation

Historic Weather in Patras — Graph

°F

Patras temperature yesterday

Maximum temperature yesterday: 82 °F (at 2:20 PM)
Minimum temperature yesterday: 63 °F (at 6:50 AM)
Average temperature yesterday: 74 °F

Past Weeks' High & Low Weather Summary

 TemperatureHumidityPressure
High84 °F (Sep 11, 3:20 PM)100% (Sep 7, 4:50 AM)30.18 "Hg (Sep 7, 4:50 AM)
Low59 °F (Sep 18, 6:50 AM)37% (Sep 19, 2:50 PM)29.74 "Hg (Sep 6, 3:50 PM)
Average75 °F76%29.95 "Hg
* Reported Sep 6 12:20 PM — Sep 21 12:20 PM, Patras, Weather by CustomWeather, © 2014

Note: Actual official high and low records may vary slightly from our data, if they occured in-between our weather recording intervals... More about our weather records

Advertising

Patras weather history for previous 24 hours

 ConditionsComfort  
Time TempWeatherWind HumidityBarometerVisibility
12:20 PM
Sep 21
82 °FOvercast.7 mph62%30.01 "HgN/A
11:50 AM81 °FOvercast.6 mph70%30.01 "HgN/A
11:20 AM81 °FPassing clouds.7 mph70%30.01 "HgN/A
10:50 AM81 °FPassing clouds.No wind70%30.01 "HgN/A
10:20 AM79 °FSunny.No wind74%30.01 "Hg10 mi
9:50 AM77 °FSunny.No wind83%30.01 "Hg10 mi
9:20 AM75 °FSunny.No wind83%30.01 "Hg10 mi
8:50 AM72 °FPassing clouds.No wind94%30.01 "HgN/A
8:20 AM68 °FPassing clouds.No wind100%30.04 "HgN/A
7:50 AM66 °FPassing clouds.No wind100%30.01 "HgN/A
7:20 AM66 °FPassing clouds.No wind100%30.01 "HgN/A
6:50 AM66 °FPassing clouds.No wind100%30.01 "HgN/A
5:50 AM66 °FPassing clouds.No wind100%30.04 "HgN/A
4:50 AM66 °FPassing clouds.No wind100%30.04 "HgN/A
3:50 AM68 °FPassing clouds.No wind100%30.04 "HgN/A
2:50 AM72 °FPassing clouds.No wind88%30.04 "HgN/A
1:50 AM68 °FClear.No wind100%30.07 "Hg10 mi
12:50 AM70 °FClear.No wind94%30.07 "Hg10 mi
11:50 PM
Sep 20
70 °FClear.No wind88%30.07 "Hg10 mi
10:50 PM72 °FPassing clouds.3 mph83%30.07 "HgN/A
9:50 PM72 °FPassing clouds.No wind88%30.07 "HgN/A
8:50 PM73 °FPassing clouds.5 mph89%30.07 "HgN/A
4:20 PM82 °FPassing clouds.7 mph45%30.07 "HgN/A
3:50 PM82 °FPassing clouds.7 mph45%30.07 "HgN/A
3:20 PM82 °FPartly sunny.8 mph51%30.07 "HgN/A
2:50 PM82 °FPartly sunny.7 mph55%30.09 "HgN/A
2:20 PM82 °FPartly sunny.7 mph48%30.09 "HgN/A
1:50 PM81 °FPartly sunny.5 mph48%30.12 "HgN/A
1:20 PM81 °FPartly sunny.7 mph62%30.12 "HgN/A
Weather by CustomWeather, © 2014

See weather overviewHow to use our weather pages